{"data":{"norad_id":55652,"epoch":"2026-09-20T21:36:04.759776Z","epoch_age_seconds":68428,"freshness":"FRESH","line1":"1 55652U 23021AA  26263.90005509 -.00000713  00000+0 -51973-4 0  9999","line2":"2 55652  69.9998  52.1968 0002658 273.8722  86.2133 14.98322464198035","mean_motion":14.98322464,"eccentricity":0.0002658,"inclination_deg":69.9998,"raan_deg":52.1968,"arg_perigee_deg":273.8722,"mean_anomaly_deg":86.2133,"bstar":-5.1973e-5,"rev_number":19803,"period_min":96.107482507851,"perigee_km":570.23182803568,"apogee_km":573.92656296521,"semimajor_km":6950.2161955004,"source":"CELESTRAK","updated_at":"2026-09-21T09:00:33.285621Z"}}